Location: Chemnitz
(49.5500°N, 11.5830°E)
Time: 19:58:37
(UTC+01:00)

ISS - Pass Details

Date: 04 January 2018
Orbit: 401 x 407 km, 51.6° (Epoch: 17 January)

Event Time Altitude Azimuth Distance (km) Brightness Sun altitude
Exits shadow 05:22:47 25° 75° (ENE) 860 -1.6 -26.0°
Drops below altitude 10° 05:24:19 10° 73° (ENE) 1,469 -0.1 -25.7°
Sets 05:26:25 0° 72° (ENE) 2,332 1.1 -25.4°
